Find Cubesat-OSCAR-66

NORAD ID: 32791 Int'l Des: 2008-021 Owner: NIHON Country: J operational
別名: SEEDS spacetrack SEEDS II (CO-66) celestrak SEEDS II satnogs
LEOCIRCULARRETROGRADE

現在のビュー

3D地球を読み込み中...

About Cubesat-OSCAR-66

Cubesat-OSCAR-66 (NORAD 32791) is a satellite launched Apr 28, 2008 by NIHON of J. It operates in LEO, CIRCULAR, RETROGRADE orbit with a mass of 1.00 kg.

次回通過

Passes for default location (London). Set your location on the main map for personalized predictions.

高度履歴

Loading altitude history...

軌道要素

1 32791U 08021J 26208.92036169 .00020623 00000-0 62704-3 0 9992
2 32791 97.7535 208.8069 0004293 133.7191 226.4407 15.34065834993539
Epoch: Jul 27, 2026 • Age: 15 hours

現在のステータス

高度 464.1 km
遠地点 / 近地点 N/A
速度 7.64 km/s
衛星直下点 24.80°N, 105.93°W
打ち上げ日 Apr 28, 2008
運用期間 18.2 years
タイプ other

技術仕様

分類 Payload
質量 1.00 kg
乾燥質量 1.00 kg
総質量 1.00 kg
長さ 0.10 m
直径 0.10 m
スパン 0.10 m
形状 Box
製造者 NIHON
バスタイプ Cubesat 1U
フェーズステータス In Orbit
所有者/国 NIHON/J

Most Searched